Location: Saratoga Springs
(43.0831°N, 73.7850°W)
Time: 22:02:07
(UTC-04:00)

Vanguard 2 Rocket - Pass Details

Date: 18 April 2024
Orbit: 556 x 3304 km, 32.9° (Epoch: 21 May)

Event Time Altitude Azimuth Distance (km) Brightness Sun altitude
Rises 03:12:28 0° 273° (W) 7,277 11.2 -27.4°
Reaches altitude 10° 03:17:38 10° 269° (W) 6,255 10.8 -26.8°
Maximum altitude 03:35:55 49° 203° (SSW) 3,336 9.3 -24.5°
Drops below altitude 10° 03:48:41 10° 134° (SE) 4,479 10.4 -22.9°
Sets 03:51:43 0° 128° (SE) 5,154 10.9 -22.5°
